Weather History for Spirit of St Louis, MO

Change the Weather History Date:

Sunday, March 10, 2013

  Actual Average Record
Temperature  
Mean Temperature 52 °F -  
Max Temperature 60 °F 49 °F 79 °F (2009)
Min Temperature 44 °F 28 °F 14 °F (1998)
Degree Days  
Heating Degree Days 13    
Growing Degree Days 2 (Base 50)    
Moisture  
Dew Point 47 °F    
Average Humidity 82    
Maximum Humidity 100    
Minimum Humidity 52    
Precipitation  
Precipitation 1.03 in - - ()
Sea Level Pressure  
Sea Level Pressure 29.72 in    
Wind  
Wind Speed 6 mph (SW)    
Max Wind Speed 14 mph    
Max Gust Speed 17 mph    
Visibility 8 miles    
Events Rain , Thunderstorm    
Averages and records for this station are not official NWS values.
T = Trace of Precipitation, MM = Missing Value Source: NWS Daily Summary

Daily Weather History Graph

Daily Weather History Graph

Search for Another Location

Airport:

Trip Planner

Search our weather history database for the weather conditions in past years. The results will help you decide how hot, cold, wet, or windy it might be!

Date:

Astronomy

Mar. 10, 2013 Rise Set
Actual Time 7:21 AM CDT 7:05 PM CDT
Civil Twilight 6:54 AM CDT 7:31 PM CDT
Nautical Twilight 6:23 AM CDT 8:02 PM CDT
Astronomical Twilight 5:52 AM CDT 8:33 PM CDT
Moon 6:20 AM CDT (3/10) 6:13 PM CDT (3/10)
Length of Visible Light 12h 36m
Length of Day
11h 43m
Waning Crescent, 2% of the Moon is Illuminated
Mar 10
Waning Crescent
Mar 11
New
Mar 19
First Quarter
Mar 27
Full
Apr 2
Last Quarter

Hourly Weather History & Observations

Time (CDT) Temp. Windchill Dew Point Humidity Pressure Visibility Wind Dir Wind Speed Gust Speed Precip Events Conditions
12:15 AM 60.8 °F - 42.8 °F 52% 29.78 in 7.0 mi SSW 4.6 mph - 0.03 in Rain , Thunderstorm Light Thunderstorms and Rain
12:30 AM 59.0 °F - 44.6 °F 59% 29.77 in 10.0 mi SSE 4.6 mph - 0.04 in Rain Light Rain
12:54 AM 59.0 °F - 45.0 °F 60% 29.77 in 10.0 mi Variable 3.5 mph - 0.04 in   Mostly Cloudy
1:45 AM 59.0 °F - 44.6 °F 59% 29.79 in 10.0 mi WSW 4.6 mph - N/A Thunderstorm Overcast
1:54 AM 57.9 °F - 46.0 °F 65% 29.78 in 10.0 mi West 5.8 mph - 0.00 in Rain , Thunderstorm Light Rain
3:03 AM 55.4 °F - 46.4 °F 72% 29.78 in 10.0 mi SSW 3.5 mph - 0.00 in Rain Light Rain
3:54 AM 55.0 °F - 46.0 °F 72% 29.75 in 10.0 mi SSE 5.8 mph - 0.04 in Rain Light Rain
4:54 AM 53.1 °F - 46.9 °F 80% 29.73 in 7.0 mi ESE 4.6 mph - 0.03 in Rain Light Rain
5:54 AM 55.0 °F - 46.0 °F 72% 29.71 in 10.0 mi Calm Calm - 0.00 in   Mostly Cloudy
6:54 AM 57.2 °F - 46.4 °F 67% 29.74 in 10.0 mi SSW 6.9 mph 16.1 mph N/A Rain Light Rain
7:54 AM 55.0 °F - 50.0 °F 83% 29.73 in 5.0 mi SSE 8.1 mph - 0.09 in Rain Light Rain
8:54 AM 55.0 °F - 52.0 °F 89% 29.73 in 5.0 mi South 10.4 mph - 0.05 in Rain Light Rain
9:54 AM 55.9 °F - 52.0 °F 87% 29.68 in 4.0 mi SSE 8.1 mph - 0.05 in Rain Light Rain
10:54 AM 54.0 °F - 52.0 °F 93% 29.71 in 3.0 mi Calm Calm - 0.19 in Rain Rain
11:54 AM 54.0 °F - 53.1 °F 97% 29.68 in 3.0 mi North 4.6 mph - 0.15 in Rain Rain
11:59 AM 55.4 °F - 51.8 °F 88% 29.69 in 3.0 mi Calm Calm - 0.00 in Rain Rain
12:07 PM 53.6 °F - 53.6 °F 100% 29.69 in 1.8 mi Calm Calm - 0.02 in Rain Rain
12:26 PM 53.6 °F - 51.8 °F 94% 29.70 in 1.8 mi West 8.1 mph - 0.04 in Rain Rain
12:47 PM 53.6 °F - 48.2 °F 82% 29.69 in 8.0 mi West 12.7 mph - 0.06 in Rain Light Rain
12:54 PM 53.1 °F - 48.9 °F 86% 29.68 in 9.0 mi West 12.7 mph - 0.07 in Rain Light Rain
1:54 PM 52.0 °F - 48.9 °F 89% 29.73 in 4.0 mi WSW 10.4 mph - 0.07 in Rain Rain
2:54 PM 52.0 °F - 48.9 °F 89% 29.67 in 10.0 mi East 3.5 mph - 0.12 in Rain Light Rain
3:54 PM 51.1 °F - 48.9 °F 92% 29.65 in 10.0 mi SSE 4.6 mph - 0.04 in   Overcast
4:03 PM 51.8 °F - 48.2 °F 88% 29.68 in 7.0 mi West 8.1 mph 17.3 mph 0.01 in Rain Rain
4:54 PM 52.0 °F - 48.9 °F 89% 29.66 in 6.0 mi South 5.8 mph - 0.04 in Rain Light Rain
5:54 PM 53.1 °F - 48.9 °F 86% 29.66 in 10.0 mi South 9.2 mph - 0.00 in   Overcast
6:54 PM 53.1 °F - 48.9 °F 86% 29.67 in 10.0 mi South 5.8 mph - N/A   Scattered Clouds
7:54 PM 52.0 °F - 48.9 °F 89% 29.68 in 10.0 mi South 3.5 mph - N/A   Mostly Cloudy
8:54 PM 50.0 °F - 46.0 °F 86% 29.71 in 10.0 mi WSW 8.1 mph - 0.04 in Rain Light Rain
9:18 PM 48.2 °F - 46.4 °F 93% 29.72 in 10.0 mi WSW 8.1 mph - 0.01 in   Overcast
9:54 PM 48.0 °F - 44.1 °F 86% 29.74 in 10.0 mi West 11.5 mph - 0.01 in Rain Light Rain
10:49 PM 46.4 °F 42.4 °F 42.8 °F 87% 29.74 in 10.0 mi West 8.1 mph - 0.00 in Rain Light Rain
10:54 PM 46.0 °F 41.9 °F 42.1 °F 86% 29.74 in 10.0 mi West 8.1 mph - 0.00 in Rain Light Rain
11:05 PM 46.4 °F 42.4 °F 42.8 °F 87% 29.74 in 10.0 mi West 8.1 mph - 0.00 in   Overcast
11:23 PM 46.4 °F 43.5 °F 42.8 °F 87% 29.74 in 10.0 mi WSW 5.8 mph - 0.00 in   Overcast
11:54 PM 46.4 °F 41.9 °F 41.0 °F 81% 29.73 in 10.0 mi WSW 9.2 mph - N/A   Overcast
12:01 AM 46.4 °F 42.4 °F 41.0 °F 81% 29.73 in 10.0 mi West 8.1 mph - N/A   Overcast
12:13 AM 44.6 °F 38.1 °F 39.2 °F 81% 29.74 in 10.0 mi West 13.8 mph - N/A   Overcast
12:54 AM 44.1 °F 38.1 °F 39.0 °F 82% 29.75 in 10.0 mi West 11.5 mph - N/A   Overcast